Weather History for Hoquiam, WA

Change the Weather History Date:

Monday, January 21, 2013

  Actual Average Record
Temperature  
Mean Temperature 38 °F 43 °F  
Max Temperature 44 °F 48 °F 59 °F (2005)
Min Temperature 32 °F 38 °F 17 °F (1962)
Degree Days  
Heating Degree Days 27 22  
Month to date heating degree days 473  
Cooling Degree Days 0 0  
Month to date cooling degree days 0  
Year to date cooling degree days 0  
Moisture  
Dew Point 33 °F    
Average Humidity 93    
Maximum Humidity 100    
Minimum Humidity 73    
Precipitation  
Precipitation 0.00 in 0.33 in 2.44 in (1954)
Month to date precipitation 7.34  
Year to date precipitation 7.34  
Sea Level Pressure  
Sea Level Pressure 30.17 in    
Wind  
Wind Speed 10 mph (ENE)    
Max Wind Speed 16 mph    
Max Gust Speed 17 mph    
Visibility 7 miles    
Events      
T = Trace of Precipitation, MM = Missing Value Source: NWS Daily Summary

Daily Weather History Graph

Daily Weather History Graph

Search for Another Location

Airport:

Trip Planner

Search our weather history database for the weather conditions in past years. The results will help you decide how hot, cold, wet, or windy it might be!

Date:

Astronomy

Jan. 21, 2013 Rise Set
Actual Time 7:52 AM PST 5:02 PM PST
Civil Twilight 7:18 AM PST 5:36 PM PST
Nautical Twilight 6:41 AM PST 6:13 PM PST
Astronomical Twilight 6:05 AM PST 6:49 PM PST
Moon 12:44 PM PST (1/21) 3:26 AM PST (1/21)
Length of Visible Light 10h 17m
Length of Day
9h 10m
Waxing Gibbous, 76% of the Moon is Illuminated
Jan 21
Waxing Gibbous
Jan 26
Full
Feb 3
Last Quarter
Feb 9
New
Feb 17
First Quarter

Hourly Weather History & Observations

Time (PST) Temp. Windchill Dew Point Humidity Pressure Visibility Wind Dir Wind Speed Gust Speed Precip Events Conditions
12:01 AM 33.8 °F 28.6 °F 32.0 °F 93% 30.24 in 8.0 mi ENE 5.8 mph - N/A   Scattered Clouds
12:10 AM 33.8 °F 27.7 °F 33.8 °F 100% 30.24 in 7.0 mi ENE 6.9 mph - N/A   Mostly Cloudy
12:53 AM 34.0 °F 25.5 °F 33.1 °F 96% 30.25 in 7.0 mi ENE 11.5 mph - N/A   Overcast
1:53 AM 34.0 °F 26.0 °F 33.1 °F 96% 30.24 in 8.0 mi ENE 10.4 mph - N/A   Overcast
2:53 AM 35.1 °F 27.9 °F 34.0 °F 96% 30.25 in 8.0 mi ENE 9.2 mph - N/A   Overcast
3:53 AM 35.1 °F 27.9 °F 35.1 °F 100% 30.23 in 7.0 mi ENE 9.2 mph - N/A   Overcast
4:53 AM 35.1 °F 27.4 °F 34.0 °F 96% 30.20 in 4.0 mi ENE 10.4 mph - N/A   Overcast
5:01 AM 33.8 °F 25.8 °F 33.8 °F 100% 30.19 in 3.0 mi ENE 10.4 mph - N/A   Overcast
5:53 AM 33.1 °F 23.9 °F 33.1 °F 100% 30.18 in 3.0 mi ENE 12.7 mph - N/A   Overcast
6:49 AM 33.8 °F 24.8 °F 32.0 °F 93% 30.16 in 6.0 mi ENE 12.7 mph - N/A   Overcast
6:53 AM 33.1 °F 23.9 °F 32.0 °F 96% 30.18 in 6.0 mi ENE 12.7 mph - N/A   Overcast
7:53 AM 32.0 °F 22.1 °F 32.0 °F 100% 30.17 in 6.0 mi ENE 13.8 mph - N/A   Mostly Cloudy
8:00 AM 32.0 °F 21.6 °F 32.0 °F 100% 30.17 in 5.0 mi ENE 15.0 mph - N/A   Scattered Clouds
8:06 AM 32.0 °F 22.1 °F 32.0 °F 100% 30.17 in 5.0 mi ENE 13.8 mph - N/A   Mostly Cloudy
8:53 AM 32.0 °F 22.5 °F 32.0 °F 100% 30.19 in 5.0 mi ENE 12.7 mph - N/A   Overcast
9:53 AM 33.1 °F 23.9 °F 32.0 °F 96% 30.21 in 5.0 mi East 12.7 mph - N/A   Overcast
10:53 AM 34.0 °F 24.2 °F 33.1 °F 96% 30.21 in 6.0 mi East 15.0 mph - N/A   Scattered Clouds
11:53 AM 37.0 °F 27.7 °F 34.0 °F 89% 30.19 in 9.0 mi East 16.1 mph - N/A   Clear
12:53 PM 39.9 °F 32.5 °F 35.1 °F 83% 30.17 in 9.0 mi East 12.7 mph - N/A   Clear
1:53 PM 42.1 °F 35.2 °F 36.0 °F 79% 30.14 in 10.0 mi East 12.7 mph - N/A   Clear
2:53 PM 44.1 °F 37.7 °F 36.0 °F 73% 30.13 in 10.0 mi East 12.7 mph - N/A   Clear
3:53 PM 43.0 °F 36.4 °F 36.0 °F 76% 30.12 in 10.0 mi East 12.7 mph - N/A   Clear
4:53 PM 39.0 °F 34.0 °F 34.0 °F 82% 30.13 in 10.0 mi ENE 6.9 mph - N/A   Clear
5:53 PM 37.0 °F 30.4 °F 33.1 °F 86% 30.14 in 10.0 mi NE 9.2 mph - N/A   Clear
6:53 PM 35.1 °F 26.9 °F 33.1 °F 92% 30.14 in 10.0 mi NE 11.5 mph - N/A   Clear
7:53 PM 34.0 °F 26.0 °F 32.0 °F 92% 30.13 in 8.0 mi ENE 10.4 mph - N/A   Partly Cloudy
8:27 PM 33.8 °F 25.3 °F 32.0 °F 93% 30.12 in 8.0 mi ENE 11.5 mph - N/A   Mostly Cloudy
8:53 PM 34.0 °F 26.6 °F 32.0 °F 92% 30.13 in 7.0 mi ENE 9.2 mph - N/A   Overcast
9:32 PM 33.8 °F 25.3 °F 32.0 °F 93% 30.11 in 6.0 mi ENE 11.5 mph - N/A   Overcast
9:53 PM 33.1 °F 23.9 °F 32.0 °F 96% 30.12 in 7.0 mi ENE 12.7 mph 17.3 mph N/A   Mostly Cloudy
10:34 PM 33.8 °F 26.4 °F 32.0 °F 93% 30.11 in 9.0 mi ENE 9.2 mph - N/A   Scattered Clouds
10:53 PM 33.1 °F 24.4 °F 32.0 °F 96% 30.12 in 9.0 mi ENE 11.5 mph - N/A   Partly Cloudy
11:07 PM 32.0 °F 24.8 °F 32.0 °F 100% 30.11 in 8.0 mi ENE 8.1 mph - N/A   Mostly Cloudy
11:53 PM 32.0 °F 24.2 °F 30.9 °F 96% 30.12 in 9.0 mi ENE 9.2 mph - N/A   Overcast